Satellite: ORSTED
Catalog number: 25635
Epoch time:      103064.00199388
Element set:     846 
Inclination:       96.4527 deg
RA of node:        46.7831 deg
Eccentricity:    0.0143942
Arg of perigee:   283.7140 deg
Mean anomaly:      74.8070 deg
Mean motion:   14.44865861 rev/day
Decay rate:    7.1600E-006 rev/day^2
Epoch rev:           21202
Checksum:              307

Satellite: SUNSAT
Catalog number: 25636
Epoch time:      103063.93258708
Element set:     672 
Inclination:       96.4554 deg
RA of node:        45.3573 deg
Eccentricity:    0.0147902
Arg of perigee:   290.5342 deg
Mean anomaly:      68.0035 deg
Mean motion:   14.42967858 rev/day
Decay rate:    3.5099E-006 rev/day^2
Epoch rev:           21188
Checksum:              334

Satellite: UOSAT 12
Catalog number: 25693
Epoch time:      103064.18112404
Element set:     759 
Inclination:       64.5611 deg
RA of node:       326.0619 deg
Eccentricity:    0.0021787
Arg of perigee:   315.6766 deg
Mean anomaly:      44.2630 deg
Mean motion:   14.76405075 rev/day
Decay rate:    5.8599E-006 rev/day^2
Epoch rev:           20841
Checksum:              315

Satellite: FENGYUN 1C
Catalog number: 25730
Epoch time:      103064.60761365
Element set:     780 
Inclination:       98.6330 deg
RA of node:        88.4439 deg
Eccentricity:    0.0013829
Arg of perigee:   322.9602 deg
Mean anomaly:      37.0784 deg
Mean motion:   14.11736013 rev/day
Decay rate:    8.7000E-007 rev/day^2
Epoch rev:           19675
Checksum:              306

Satellite: ASTRA 1H
Catalog number: 25785
Epoch time:      103057.00000000
Element set:     373 
Inclination:        0.0122 deg
RA of node:       319.8851 deg
Eccentricity:    0.0002995
Arg of perigee:    65.1991 deg
Mean anomaly:     149.5614 deg
Mean motion:    1.00273184 rev/day
Decay rate:    1.0400E-006 rev/day^2
Epoch rev:            1357
Checksum:              244

Satellite: TERRA
Catalog number: 25994
Epoch time:      103064.28243379
Element set:     753 
Inclination:       98.1953 deg
RA of node:       140.2730 deg
Eccentricity:    0.0000698
Arg of perigee:   101.7384 deg
Mean anomaly:     258.3908 deg
Mean motion:   14.57147059 rev/day
Decay rate:    6.2600E-006 rev/day^2
Epoch rev:           17081
Checksum:              319

Satellite: JAWSAT
Catalog number: 26061
Epoch time:      103063.56609802
Element set:     779 
Inclination:      100.2029 deg
RA of node:       123.2289 deg
Eccentricity:    0.0034845
Arg of perigee:   239.4681 deg
Mean anomaly:     120.3055 deg
Mean motion:   14.37838207 rev/day
Decay rate:    3.7100E-006 rev/day^2
Epoch rev:           16254
Checksum:              286

Satellite: OPAL
Catalog number: 26063
Epoch time:      103063.70452649
Element set:     735 
Inclination:      100.2063 deg
RA of node:       120.8436 deg
Eccentricity:    0.0036698
Arg of perigee:   247.1464 deg
Mean anomaly:     112.5836 deg
Mean motion:   14.35486012 rev/day
Decay rate:    8.8000E-007 rev/day^2
Epoch rev:           16242
Checksum:              283

Satellite: ASUSAT
Catalog number: 26065
Epoch time:      103064.56721563
Element set:     748 
Inclination:      100.2094 deg
RA of node:       122.0194 deg
Eccentricity:    0.0036970
Arg of perigee:   245.4917 deg
Mean anomaly:     114.2408 deg
Mean motion:   14.35514531 rev/day
Decay rate:    1.2299E-006 rev/day^2
Epoch rev:           16253
Checksum:              284

Satellite: GOES 11
Catalog number: 26352
Epoch time:      103063.34049868
Element set:     50 
Inclination:        0.1748 deg
RA of node:       102.1606 deg
Eccentricity:    0.0003194
Arg of perigee:   208.7737 deg
Mean anomaly:     219.6232 deg
Mean motion:    1.00266621 rev/day
Decay rate:   -4.3000E-007 rev/day^2
Epoch rev:            1037
Checksum:              250

Satellite: EUTELSAT W4
Catalog number: 26369
Epoch time:      103062.58668808
Element set:     356 
Inclination:        0.0433 deg
RA of node:       355.6995 deg
Eccentricity:    0.0002598
Arg of perigee:   346.7563 deg
Mean anomaly:      65.7433 deg
Mean motion:    1.00271513 rev/day
Decay rate:    1.4199E-006 rev/day^2
Epoch rev:            1018
Checksum:              311

Satellite: FENGYUN 2B
Catalog number: 26382
Epoch time:      103062.22690641
Element set:     804 
Inclination:        0.5390 deg
RA of node:       287.9954 deg
Eccentricity:    0.0002204
Arg of perigee:   190.6933 deg
Mean anomaly:     228.0471 deg
Mean motion:    1.00270798 rev/day
Decay rate:   -3.4400E-006 rev/day^2
Epoch rev:             983
Checksum:              281

Satellite: EUTELSAT W1
Catalog number: 26487
Epoch time:      103063.87140047
Element set:     363 
Inclination:        0.0330 deg
RA of node:       285.8059 deg
Eccentricity:    0.0004106
Arg of perigee:    65.6198 deg
Mean anomaly:     134.4156 deg
Mean motion:    1.00274020 rev/day
Decay rate:    5.9000E-007 rev/day^2
Epoch rev:             916
Checksum:              258

Satellite: ASTRA 2B
Catalog number: 26494
Epoch time:      103057.00000000
Element set:     256 
Inclination:        0.0178 deg
RA of node:       354.5658 deg
Eccentricity:    0.0005000
Arg of perigee:   302.8402 deg
Mean anomaly:     246.1704 deg
Mean motion:    1.00276704 rev/day
Decay rate:    1.3400E-006 rev/day^2
Epoch rev:             899
Checksum:              231

Satellite: NOAA 16
Catalog number: 26536
Epoch time:      103063.75497975
Element set:     232 
Inclination:       98.9049 deg
RA of node:        11.9342 deg
Eccentricity:    0.0009821
Arg of perigee:   266.4499 deg
Mean anomaly:      93.5699 deg
Mean motion:   14.11914288 rev/day
Decay rate:    5.4900E-006 rev/day^2
Epoch rev:           12615
Checksum:              349

Satellite: SAUDISAT 1A
Catalog number: 26545
Epoch time:      103064.42149593
Element set:     420 
Inclination:       64.5609 deg
RA of node:       346.2725 deg
Eccentricity:    0.0051104
Arg of perigee:   236.3518 deg
Mean anomaly:     123.2730 deg
Mean motion:   14.79018272 rev/day
Decay rate:    1.4459E-005 rev/day^2
Epoch rev:           13141
Checksum:              282

Satellite: UNISAT
Catalog number: 26547
Epoch time:      103064.12976504
Element set:     439 
Inclination:       64.5596 deg
RA of node:       349.3453 deg
Eccentricity:    0.0058331
Arg of perigee:   238.4398 deg
Mean anomaly:     121.1009 deg
Mean motion:   14.79804508 rev/day
Decay rate:    2.1010E-005 rev/day^2
Epoch rev:           13134
Checksum:              299

Satellite: TIUNGSAT 1
Catalog number: 26548
Epoch time:      103063.88092045
Element set:     423 
Inclination:       64.5600 deg
RA of node:       340.6643 deg
Eccentricity:    0.0044487
Arg of perigee:   235.6862 deg
Mean anomaly:     124.0017 deg
Mean motion:   14.81314779 rev/day
Decay rate:    1.6010E-005 rev/day^2
Epoch rev:           13148
Checksum:              288

Satellite: SAUDISAT 1B
Catalog number: 26549
Epoch time:      103063.92694307
Element set:     708 
Inclination:       64.5518 deg
RA of node:       351.9782 deg
Eccentricity:    0.0055686
Arg of perigee:   236.4453 deg
Mean anomaly:     123.1317 deg
Mean motion:   14.77949593 rev/day
Decay rate:    9.7700E-006 rev/day^2
Epoch rev:           13126
Checksum:              341

Satellite: AMSAT OSCAR 40
Catalog number: 26609
Epoch time:      103062.14261750
Element set:     313 
Inclination:        8.2009 deg
RA of node:        61.8922 deg
Eccentricity:    0.7947545
Arg of perigee:   149.3793 deg
Mean anomaly:     302.8222 deg
Mean motion:    1.25596061 rev/day
Decay rate:   -3.1399E-006 rev/day^2
Epoch rev:            1073
Checksum:              296

Satellite: GOES 12
Catalog number: 26871
Epoch time:      103063.15934101
Element set:     849 
Inclination:        0.2936 deg
RA of node:       276.4641 deg
Eccentricity:    0.0002255
Arg of perigee:    24.5193 deg
Mean anomaly:     187.7453 deg
Mean motion:    1.00359856 rev/day
Decay rate:   -2.0200E-006 rev/day^2
Epoch rev:             597
Checksum:              285

Satellite: PCSAT
Catalog number: 26931
Epoch time:      103063.94191770
Element set:     419 
Inclination:       67.0467 deg
RA of node:       218.6096 deg
Eccentricity:    0.0005136
Arg of perigee:   269.5575 deg
Mean anomaly:      90.4937 deg
Mean motion:   14.29121515 rev/day
Decay rate:    1.3699E-006 rev/day^2
Epoch rev:            7440
Checksum:              322

Satellite: SAPPHIRE
Catalog number: 26932
Epoch time:      103064.19807863
Element set:     411 
Inclination:       67.0529 deg
RA of node:       217.6514 deg
Eccentricity:    0.0004432
Arg of perigee:   246.0806 deg
Mean anomaly:     113.9835 deg
Mean motion:   14.29299218 rev/day
Decay rate:    1.1500E-006 rev/day^2
Epoch rev:            7446
Checksum:              297

Satellite: ENVISAT
Catalog number: 27386
Epoch time:      103064.42530243
Element set:     966 
Inclination:       98.5513 deg
RA of node:       132.7617 deg
Eccentricity:    0.0001126
Arg of perigee:    87.1819 deg
Mean anomaly:     272.9493 deg
Mean motion:   14.32248658 rev/day
Decay rate:   -6.8999E-007 rev/day^2
Epoch rev:            5287
Checksum:              344

Satellite: IDEFIX/ARIANE 
Catalog number: 27422
Epoch time:      103064.24687936
Element set:     247 
Inclination:       98.6934 deg
RA of node:       143.3788 deg
Eccentricity:    0.0013368
Arg of perigee:   105.9669 deg
Mean anomaly:     254.2986 deg
Mean motion:   14.27976287 rev/day
Decay rate:    1.7800E-006 rev/day^2
Epoch rev:            4355
Checksum:              360

